Location: Grossmotten
(48.5500°N, 15.3833°E)
Time: 19:29:34
(UTC+00:00)

H-2A R/B - Pass Details

Date: 15 November 2019
Orbit: 530 x 652 km, 98.3° (Epoch: 09 December)

Event Time Altitude Azimuth Distance (km) Brightness Sun altitude
Rises 04:49:45 0° 0° (N) 2,979 5.9 -12.6°
Reaches altitude 10° 04:52:41 10° 340° (NNW) 2,070 4.9 -12.1°
Maximum altitude 04:55:28 16° 302° (WNW) 1,678 4.2 -11.7°
Enters shadow 04:56:01 16° 293° (WNW) 1,694 4.1 -11.6°
